Starlink 1202

operational
NORAD ID: 45183 Int'l Des: 2020-012 Owner: SPXS Country: US Constellation: starlink
LEOCIRCULARSTARLINK_TYPE

Über Starlink 1202

Beschreibung wird geladen...

Live-Position

3D-Globus wird geladen...

Nächste Überflüge

Höhenverlauf

Altitude vs Time

uPlot chart will show altitude changes over time

Zweizeiliger Elementsatz

1 45183U 20012F 25259.21444145 .00001961 00000-0 15059-3 0 9994
2 45183 53.0547 109.8693 0001277 91.1803 268.9332 15.06385909308541
Epoch: 16. Sept. 2025 • Age: 6 hours

Aktueller Status

Höhe 565.2 km
Geschwindigkeit 7.58 km/s
Subsatellitenpunkt -49.59°S, 170.98°W
Startdatum 17. Feb. 2020
Alter 5.5 years
Typ internet

Technische Details

Klassifizierung Payload
Masse 260.00 kg
Trockenmasse 248.00 kg
Gesamtmasse 260.00 kg
Länge 0.20 m
Durchmesser 2.80 m
Spannweite 9.00 m
Form Box + pan
Hersteller SPXS
Bus-Typ Starlink
Phasenstatus In Orbit
Besitzer/Staat SPXS/US

Große Konstellationen

Loading constellations...